TimeEST,TemperatureF,Dew PointF,Humidity,Sea Level PressureIn,VisibilityMPH,Wind Direction,Wind SpeedMPH,Gust SpeedMPH,PrecipitationIn,Events,Conditions,WindDirDegrees,DateUTC
12:15 AM,29.3,26.8,90,30.42,10.0,North,-9999.0,-,N/A,,Clear,0,2013-01-08 05:15:00
12:35 AM,28.8,26.6,92,30.40,10.0,North,-9999.0,-,N/A,,Clear,0,2013-01-08 05:35:00
12:55 AM,28.4,26.4,92,30.40,10.0,North,-9999.0,-,N/A,,Clear,0,2013-01-08 05:55:00
1:35 AM,28.0,26.2,93,30.42,10.0,North,-9999.0,-,N/A,,Clear,0,2013-01-08 06:35:00
1:55 AM,28.4,27.5,96,30.42,10.0,North,-9999.0,-,N/A,,Clear,0,2013-01-08 06:55:00
2:15 AM,28.2,26.6,94,30.42,10.0,North,-9999.0,-,N/A,,Clear,0,2013-01-08 07:15:00
2:35 AM,28.2,26.2,92,30.42,10.0,North,-9999.0,-,N/A,,Clear,0,2013-01-08 07:35:00
2:55 AM,27.5,25.7,93,30.42,10.0,North,-9999.0,-,N/A,,Clear,0,2013-01-08 07:55:00
3:15 AM,27.0,23.9,88,30.40,10.0,North,-9999.0,-,N/A,,Clear,0,2013-01-08 08:15:00
3:35 AM,27.5,25.2,91,30.40,10.0,North,-9999.0,-,N/A,,Clear,0,2013-01-08 08:35:00
3:55 AM,27.3,26.2,96,30.40,7.0,North,-9999.0,-,N/A,,Clear,0,2013-01-08 08:55:00
4:15 AM,27.5,26.1,94,30.40,10.0,North,-9999.0,-,N/A,,Clear,0,2013-01-08 09:15:00
4:35 AM,27.5,26.4,96,30.40,10.0,North,-9999.0,-,N/A,,Clear,0,2013-01-08 09:35:00
4:55 AM,27.3,25.9,94,30.40,7.0,North,-9999.0,-,N/A,,Clear,0,2013-01-08 09:55:00
5:15 AM,27.0,26.2,97,30.41,7.0,North,-9999.0,-,N/A,,Clear,0,2013-01-08 10:15:00
5:35 AM,26.6,24.6,92,30.42,10.0,North,-9999.0,-,N/A,,Clear,0,2013-01-08 10:35:00
5:55 AM,26.6,25.2,94,30.42,10.0,North,-9999.0,-,N/A,,Clear,0,2013-01-08 10:55:00
6:15 AM,27.3,25.9,94,30.42,10.0,North,-9999.0,-,N/A,,Clear,0,2013-01-08 11:15:00
6:35 AM,24.8,23.9,96,30.42,10.0,North,-9999.0,-,N/A,,Clear,0,2013-01-08 11:35:00
7:15 AM,27.9,27.3,98,30.43,10.0,North,-9999.0,-,N/A,,Clear,0,2013-01-08 12:15:00
7:35 AM,26.6,25.3,95,30.43,10.0,North,-9999.0,-,N/A,,Clear,0,2013-01-08 12:35:00
7:55 AM,26.4,24.8,94,30.44,10.0,North,-9999.0,-,N/A,,Clear,0,2013-01-08 12:55:00
8:15 AM,30.4,29.3,96,30.44,10.0,North,-9999.0,-,N/A,,Clear,0,2013-01-08 13:15:00
8:35 AM,32.5,30.9,94,30.44,10.0,North,-9999.0,-,N/A,,Clear,0,2013-01-08 13:35:00
8:55 AM,35.1,31.8,88,30.44,10.0,North,-9999.0,-,N/A,,Clear,0,2013-01-08 13:55:00
9:15 AM,39.2,33.1,79,30.43,10.0,North,-9999.0,-,N/A,,Clear,0,2013-01-08 14:15:00
9:35 AM,41.2,33.4,74,30.43,10.0,North,-9999.0,-,N/A,,Clear,0,2013-01-08 14:35:00
9:55 AM,43.3,33.8,69,30.43,10.0,SSW,11.5,-,N/A,,Clear,210,2013-01-08 14:55:00
10:15 AM,46.0,34.5,64,30.43,10.0,North,-9999.0,-,N/A,,Clear,0,2013-01-08 15:15:00
10:35 AM,48.6,34.7,59,30.42,10.0,SSW,8.1,-,N/A,,Clear,210,2013-01-08 15:35:00
10:55 AM,50.2,34.5,55,30.42,10.0,SW,12.7,19.6,N/A,,Clear,230,2013-01-08 15:55:00
11:15 AM,50.7,34.3,53,30.41,10.0,SSW,11.5,17.3,N/A,,Clear,210,2013-01-08 16:15:00
11:35 AM,51.3,34.3,52,30.40,10.0,SW,10.4,-,N/A,,Clear,230,2013-01-08 16:35:00
11:55 AM,52.9,34.3,49,30.39,10.0,SSW,11.5,-,N/A,,Clear,210,2013-01-08 16:55:00
12:15 PM,54.0,33.8,46,30.39,10.0,SW,9.2,-,N/A,,Clear,230,2013-01-08 17:15:00
12:35 PM,54.7,34.2,46,30.38,10.0,SW,11.5,17.3,N/A,,Clear,230,2013-01-08 17:35:00
12:55 PM,54.3,34.7,48,30.37,10.0,SW,10.4,-,N/A,,Mostly Cloudy,220,2013-01-08 17:55:00
1:35 PM,54.0,34.9,49,30.37,10.0,SSW,10.4,-,N/A,,Overcast,210,2013-01-08 18:35:00
1:55 PM,53.2,34.9,50,30.37,10.0,SSW,9.2,-,N/A,,Overcast,200,2013-01-08 18:55:00
2:15 PM,53.2,35.1,50,30.37,10.0,South,9.2,-,N/A,,Overcast,190,2013-01-08 19:15:00
2:55 PM,53.2,35.1,50,30.37,10.0,SW,3.5,-,N/A,,Overcast,220,2013-01-08 19:55:00
3:15 PM,53.4,35.2,50,30.37,10.0,South,8.1,-,N/A,,Overcast,190,2013-01-08 20:15:00
3:35 PM,52.7,35.1,51,30.37,10.0,South,6.9,-,N/A,,Overcast,170,2013-01-08 20:35:00
3:55 PM,52.9,34.9,50,30.37,10.0,South,8.1,-,N/A,,Overcast,170,2013-01-08 20:55:00
4:15 PM,52.9,34.5,50,30.38,10.0,South,6.9,-,N/A,,Mostly Cloudy,190,2013-01-08 21:15:00
4:35 PM,52.9,35.1,51,30.37,10.0,SSE,4.6,-,N/A,,Overcast,160,2013-01-08 21:35:00
4:55 PM,50.9,35.1,55,30.37,10.0,SSE,5.8,-,N/A,,Mostly Cloudy,150,2013-01-08 21:55:00
5:15 PM,49.3,34.7,57,30.37,10.0,SSE,5.8,-,N/A,,Scattered Clouds,160,2013-01-08 22:15:00
5:35 PM,46.9,34.3,62,30.38,10.0,SSE,4.6,-,N/A,,Clear,160,2013-01-08 22:35:00
5:55 PM,45.7,34.5,65,30.37,10.0,SSE,4.6,-,N/A,,Mostly Cloudy,160,2013-01-08 22:55:00
6:15 PM,43.9,34.2,69,30.38,10.0,South,3.5,-,N/A,,Scattered Clouds,170,2013-01-08 23:15:00
6:35 PM,44.1,34.7,70,30.39,10.0,SSW,3.5,-,N/A,,Scattered Clouds,210,2013-01-08 23:35:00
6:55 PM,42.3,34.7,75,30.40,10.0,Calm,Calm,-,N/A,,Scattered Clouds,0,2013-01-08 23:55:00
7:15 PM,42.8,34.9,74,30.39,10.0,Calm,Calm,-,N/A,,Scattered Clouds,0,2013-01-09 00:15:00
7:35 PM,41.5,34.3,76,30.39,10.0,Calm,Calm,-,N/A,,Clear,0,2013-01-09 00:35:00
7:55 PM,39.2,33.8,81,30.39,10.0,Calm,Calm,-,N/A,,Clear,0,2013-01-09 00:55:00
8:55 PM,37.4,33.3,85,30.39,10.0,Calm,Calm,-,N/A,,Clear,0,2013-01-09 01:55:00
9:15 PM,35.4,32.0,87,30.40,10.0,Calm,Calm,-,N/A,,Clear,0,2013-01-09 02:15:00
9:35 PM,35.4,32.2,88,30.40,10.0,Calm,Calm,-,N/A,,Clear,0,2013-01-09 02:35:00
9:55 PM,34.5,31.5,89,30.40,10.0,Calm,Calm,-,N/A,,Clear,0,2013-01-09 02:55:00
10:15 PM,33.4,31.5,92,30.40,10.0,Calm,Calm,-,N/A,,Clear,0,2013-01-09 03:15:00
10:35 PM,33.1,31.5,94,30.40,10.0,Calm,Calm,-,N/A,,Clear,0,2013-01-09 03:35:00
10:55 PM,33.3,32.0,95,30.40,10.0,Calm,Calm,-,N/A,,Clear,0,2013-01-09 03:55:00
11:15 PM,32.9,32.0,96,30.40,10.0,Calm,Calm,-,N/A,,Clear,0,2013-01-09 04:15:00
11:35 PM,32.2,32.0,99,30.39,10.0,Calm,Calm,-,N/A,,Clear,0,2013-01-09 04:35:00
11:55 PM,31.6,31.1,98,30.39,10.0,Calm,Calm,-,N/A,,Clear,0,2013-01-09 04:55:00